Weather Roundup
Issued by NWS

Home | Current Version | Previous Version | Text Only | Print | Product List | Glossary On
Versions: 1 2 3 4 5 6 7 8 9 10 11 12 13 14 15 16 17 18 19 20 21 22 23 24 25 26 27 28 29 30 31 32 33 34 35 36 37 38 39 40 41 42 43 44 45 46 47 48 49 50
000
NZUS93 KARX 290410
HRRWXR

CURRENT HOURLY OBSERVATIONS ACROSS
MUCH OF THE UPPER MISSISSIPPI VALLEY
NATIONAL WEATHER SERVICE LA CROSSE WI
1100 PM CDT THU JUL 28 2016


...SOUTHEAST MINNESOTA...


CITY           SKY/WX    TMP DP  RH WIND       PRES   REMARKS
ROCHESTER      CLOUDY    64  60  87 NE13      30.03S
ROCHESTER/MAYO CLOUDY    65  60  82 NE10      30.03S
WINONA         CLOUDY    64  59  82 E5        30.02S
AUSTIN         CLOUDY    64  59  82 N7        30.01S
ALBERT LEA     CLOUDY    64  63  94 N5        30.03R
DODGE CENTER   CLOUDY   N/A N/A N/A NE8       30.03F
PRESTON        CLOUDY    62  59  90 NE10      30.01F
OWATONNA       PTCLDY    64  61  88 CALM      30.03F
FARIBAULT      MOCLDY    64  63  94 CALM      30.04S
$$

...ELSEWHERE IN MINNESOTA...


CITY           SKY/WX    TMP DP  RH WIND       PRES   REMARKS
MINNEAPOLIS    PTCLDY    69  57  65 NE7       30.04R
INTNL FALLS    CLEAR     54  52  93 CALM      30.09R
DULUTH         PTCLDY    57  51  80 CALM      30.10S
RED WING       CLOUDY    66  63  88 NE3       30.03S
REDWOOD FALLS  CLOUDY    65  57  75 NW3       30.07R
MANKATO        CLOUDY    70  57  64 E7        30.04S
WORTHINGTON    CLOUDY    66  61  84 N7        30.08R
FAIRMONT       PTCLDY    63  61  94 CALM      30.04R
$$

...SOUTHWEST WISCONSIN...


CITY           SKY/WX    TMP DP  RH WIND       PRES   REMARKS
LA CROSSE      CLOUDY    64  62  93 N6        30.00S
PRAIRIE DU CHI LGT RAIN  67  65  96 CALM      29.96S
BOSCOBEL       CLOUDY    71  66  84 VRB3      29.96S
LONE ROCK      CLOUDY    70  64  81 NE7       29.97S
PLATTEVILLE    CLOUDY    70  69  98 NE9       29.96S
FORT MC COY    CLOUDY    62  61  96 CALM      30.02S
CAMP DOUGLAS   CLOUDY    65  64  93 N5        30.01R
MAUSTON-NEW LI CLOUDY    67  62  83 CALM      30.00R
VIROQUA        CLOUDY    65  65 100 NE6       30.00S
WIS DELLS      CLOUDY    66  60  80 NE9       29.98F
$$

...ELSEWHERE IN WISCONSIN...


CITY           SKY/WX    TMP DP  RH WIND       PRES   REMARKS
MILWAUKEE      CLOUDY    68  63  84 N13       29.95S
MADISON        CLOUDY    69  61  75 NE7       29.97R
GREEN BAY      CLOUDY    67  60  78 N13       30.01R
EAU CLAIRE     LGT RAIN  65  62  90 W3        30.04R
BLACK RVR FLS  LGT RAIN  64  64 100 N5        30.02R
MEDFORD        CLOUDY    64  59  86 NE8       30.06R
WAUSAU         CLOUDY    66  59  78 CALM      30.03S
WIS RAPIDS     CLOUDY    66  60  81 N7        30.04R
MARSHFIELD     CLOUDY    66  61  84 NE7       30.03S
RICE LAKE      MOCLDY    62  55  76 CALM      30.08R
$$

...NORTHEAST IOWA...


CITY           SKY/WX    TMP DP  RH WIND       PRES   REMARKS
WATERLOO       CLOUDY    67  62  84 N8        29.96S
DUBUQUE        CLOUDY    70  67  90 NE8       29.95S
DECORAH        CLOUDY    64  64 100 N9        29.98S FOG
MASON CITY     CLOUDY    63  61  93 N8        30.03S
CHARLES CITY   CLOUDY    66  64  94 NE5       30.00S
OELWEIN        CLOUDY    64  64 100 N8        29.98S
$$

...ELSEWHERE IN IOWA...


CITY           SKY/WX    TMP DP  RH WIND       PRES   REMARKS
DES MOINES     CLOUDY    72  64  76 N5        29.98R
IOWA CITY      CLEAR     71  66  84 N8        29.95S
FORT DODGE     CLOUDY    64  63  94 N6        30.03R
MARSHALLTOWN   CLEAR     64  63  96 N5        29.98R
CEDAR RAPIDS   PTCLDY    68  67  96 N8        29.94S
$$

...NORTHERN ILLINOIS...


CITY           SKY/WX    TMP DP  RH WIND       PRES   REMARKS
CHICAGO-OHARE  PTCLDY    71  69  93 N6        29.92R
CHICAGO-MIDWAY PTCLDY    75  70  84 N5        29.91S
MOLINE         CLEAR     72  66  81 W6        29.91S
ROCKFORD       MOCLDY    70  65  84 NE8       29.95R
PEORIA         MOCLDY    73  69  87 S3        29.92S
$$

NOTE: "FAIR" INDICATES FEW OR NO CLOUDS BELOW 12,000 FEET WITH NO
SIGNIFICANT WEATHER AND/OR OBSTRUCTIONS TO VISIBILITY. WIND
SPEEDS ARE IN MILES-PER-HOUR.




USA.gov is the U.S. government's official web portal to all federal, state and local government web resources and services.